Greeley, CO

9:49 PM MDT on April 19, 2018 (GMT -0600)
Greeley-Weld County

Weather History for KGXY - March, 2013

Change the Weather History Date:

Saturday, March 16, 2013

  Actual Average Record
Temperature  
Mean Temperature 44 °F -  
Max Temperature 55 °F - 82 °F (2015)
Min Temperature 33 °F - 12 °F (2001)
Degree Days  
Heating Degree Days 21    
Month to date heating degree days  
Cooling Degree Days 0    
Month to date cooling degree days  
Moisture  
Dew Point 30 °F    
Average Humidity 55    
Maximum Humidity 81    
Minimum Humidity 35    
Precipitation  
Precipitation 0.00 in - 0.66 in (1987)
Snow  
Snow 0.00 in - - ()
Snow Depth -    
Sea Level Pressure  
Sea Level Pressure 29.92 in    
Wind  
Wind Speed 12 mph (ESE)    
Max Wind Speed 23 mph    
Max Gust Speed 28 mph    
Visibility 10 miles    
Events      
T = Trace of Precipitation, MM = Missing Value Source: NWS Daily Summary

Daily Weather History Graph

Daily Weather History Graph

Search for Another Location

Airport or City:

Astronomy

Mar. 16, 2013 Rise Set
Actual Time 7:07 AM MDT 7:06 PM MDT
Civil Twilight 6:40 AM MDT 7:33 PM MDT
Nautical Twilight 6:09 AM MDT 8:05 PM MDT
Astronomical Twilight 5:37 AM MDT 8:37 PM MDT
Moon 9:38 AM MDT (3/16) No Moon Set
Length of Visible Light 12h 53m
Length of Day
11h 58m
Waxing Crescent, 23% of the Moon is Illuminated
Mar 16
Waxing Crescent
Mar 19
First Quarter
Mar 27
Full
Apr 2
Last Quarter
Apr 10
New

Hourly Weather History & Observations

Time (MDT) Temp. Windchill Dew Point Humidity Pressure Visibility Wind Dir Wind Speed Gust Speed Precip Events Conditions
12:15 AM 53.6 °F - 28.4 °F 38% 29.90 in 10.0 mi NNW 12.7 mph - N/A   Partly Cloudy
12:35 AM 53.6 °F - 28.4 °F 38% 29.90 in 10.0 mi NNW 15.0 mph - N/A   Scattered Clouds
12:55 AM 53.6 °F - 28.4 °F 38% 29.91 in 10.0 mi NNW 13.8 mph - N/A   Partly Cloudy
1:15 AM 53.6 °F - 26.6 °F 35% 29.92 in 10.0 mi NNW 23.0 mph 26.5 mph N/A   Mostly Cloudy
1:35 AM 53.6 °F - 28.4 °F 38% 29.92 in 10.0 mi North 21.9 mph 27.6 mph N/A   Mostly Cloudy
1:55 AM 48.2 °F - 26.6 °F 43% 29.96 in 10.0 mi ENE 12.7 mph 24.2 mph N/A   Mostly Cloudy
2:15 AM 48.2 °F - 26.6 °F 43% 29.97 in 10.0 mi ENE 13.8 mph 23.0 mph N/A   Mostly Cloudy
2:35 AM 48.2 °F - 28.4 °F 46% 29.97 in 10.0 mi East 13.8 mph 18.4 mph N/A   Mostly Cloudy
2:55 AM 46.4 °F 39.8 °F 28.4 °F 50% 29.97 in 10.0 mi East 16.1 mph - N/A   Overcast
3:15 AM 46.4 °F 41.1 °F 28.4 °F 50% 29.96 in 10.0 mi East 11.5 mph 19.6 mph N/A   Mostly Cloudy
3:35 AM 46.4 °F 41.5 °F 28.4 °F 50% 29.97 in 10.0 mi East 10.4 mph - N/A   Mostly Cloudy
3:55 AM 44.6 °F 37.8 °F 28.4 °F 53% 29.98 in 10.0 mi East 15.0 mph 19.6 mph N/A   Partly Cloudy
4:15 AM 44.6 °F 38.1 °F 28.4 °F 53% 29.99 in 10.0 mi ESE 13.8 mph - N/A   Clear
4:35 AM 42.8 °F 35.4 °F 28.4 °F 57% 29.99 in 10.0 mi ESE 15.0 mph - N/A   Mostly Cloudy
4:55 AM 42.8 °F 37.0 °F 28.4 °F 57% 30.00 in 10.0 mi East 10.4 mph - N/A   Mostly Cloudy
5:15 AM 42.8 °F 38.0 °F 28.4 °F 57% 30.00 in 10.0 mi East 8.1 mph - N/A   Mostly Cloudy
5:35 AM 42.8 °F 37.5 °F 28.4 °F 57% 30.02 in 10.0 mi East 9.2 mph - N/A   Scattered Clouds
5:55 AM 41.0 °F 35.8 °F 28.4 °F 61% 30.03 in 10.0 mi East 8.1 mph - N/A   Partly Cloudy
6:15 AM 41.0 °F 36.4 °F 28.4 °F 61% 30.03 in 10.0 mi East 6.9 mph - N/A   Partly Cloudy
6:35 AM 41.0 °F 36.4 °F 28.4 °F 61% 30.03 in 10.0 mi East 6.9 mph - N/A   Clear
6:55 AM 39.2 °F 34.2 °F 28.4 °F 65% 30.03 in 10.0 mi ESE 6.9 mph - N/A   Clear
7:15 AM 39.2 °F 35.0 °F 28.4 °F 65% 30.03 in 10.0 mi ENE 5.8 mph - N/A   Clear
7:35 AM 37.4 °F 32.8 °F 28.4 °F 70% 30.03 in 10.0 mi ENE 5.8 mph - N/A   Clear
7:55 AM 39.2 °F 35.9 °F 28.4 °F 65% 30.03 in 10.0 mi NE 4.6 mph - N/A   Clear
8:15 AM 39.2 °F 35.9 °F 30.2 °F 70% 30.04 in 10.0 mi NE 4.6 mph - N/A   Clear
8:35 AM 41.0 °F - 30.2 °F 65% 30.04 in 10.0 mi Calm Calm - N/A   Clear
8:55 AM 42.8 °F 39.3 °F 30.2 °F 61% 30.05 in 10.0 mi ESE 5.8 mph - N/A   Clear
9:15 AM 42.8 °F 38.0 °F 30.2 °F 61% 30.04 in 10.0 mi SE 8.1 mph - N/A   Clear
9:35 AM 42.8 °F 37.5 °F 30.2 °F 61% 30.04 in 10.0 mi ESE 9.2 mph - N/A   Scattered Clouds
9:55 AM 44.6 °F 40.2 °F 30.2 °F 57% 30.04 in 10.0 mi SE 8.1 mph - N/A   Overcast
10:15 AM 44.6 °F 40.2 °F 30.2 °F 57% 30.03 in 10.0 mi SE 8.1 mph - N/A   Scattered Clouds
10:35 AM 46.4 °F 40.1 °F 30.2 °F 53% 30.03 in 10.0 mi SE 15.0 mph 18.4 mph N/A   Partly Cloudy
11:15 AM 48.2 °F - 28.4 °F 46% 30.01 in 10.0 mi SSE 13.8 mph 21.9 mph N/A   Mostly Cloudy
11:55 AM 48.2 °F - 28.4 °F 46% 29.99 in 10.0 mi SE 15.0 mph 21.9 mph N/A   Mostly Cloudy
12:15 PM 48.2 °F - 30.2 °F 50% 29.98 in 10.0 mi SSE 15.0 mph - N/A   Mostly Cloudy
12:35 PM 48.2 °F - 30.2 °F 50% 29.96 in 10.0 mi SE 15.0 mph - N/A   Mostly Cloudy
12:55 PM 51.8 °F - 30.2 °F 44% 29.95 in 10.0 mi ESE 16.1 mph - N/A   Mostly Cloudy
1:15 PM 50.0 °F - 30.2 °F 47% 29.93 in 10.0 mi SE 13.8 mph - N/A   Mostly Cloudy
1:35 PM 50.0 °F - 32.0 °F 50% 29.91 in 10.0 mi ESE 18.4 mph 23.0 mph N/A   Scattered Clouds
1:55 PM 51.8 °F - 32.0 °F 47% 29.89 in 10.0 mi ESE 17.3 mph 24.2 mph N/A   Scattered Clouds
2:15 PM 51.8 °F - 33.8 °F 50% 29.87 in 10.0 mi SE 17.3 mph 24.2 mph N/A   Partly Cloudy
2:35 PM 53.6 °F - 33.8 °F 47% 29.85 in 10.0 mi SE 21.9 mph 26.5 mph N/A   Clear
2:55 PM 55.4 °F - 33.8 °F 44% 29.84 in 10.0 mi SE 18.4 mph 24.2 mph N/A   Partly Cloudy
3:15 PM 55.4 °F - 33.8 °F 44% 29.83 in 10.0 mi SE 16.1 mph - N/A   Mostly Cloudy
3:35 PM 55.4 °F - 33.8 °F 44% 29.85 in 10.0 mi SSE 8.1 mph - N/A   Mostly Cloudy
3:55 PM 55.4 °F - 33.8 °F 44% 29.85 in 10.0 mi ESE 10.4 mph - N/A   Overcast
4:15 PM 53.6 °F - 32.0 °F 44% 29.86 in 10.0 mi NE 5.8 mph - N/A   Overcast
4:35 PM 55.4 °F - 33.8 °F 44% 29.85 in 10.0 mi North 8.1 mph 17.3 mph N/A   Overcast
4:55 PM 53.6 °F - 33.8 °F 47% 29.83 in 10.0 mi East 5.8 mph - N/A   Mostly Cloudy
5:15 PM 55.4 °F - 33.8 °F 44% 29.83 in 10.0 mi East 12.7 mph 17.3 mph N/A   Mostly Cloudy
5:35 PM 55.4 °F - 33.8 °F 44% 29.82 in 10.0 mi ESE 11.5 mph - N/A   Partly Cloudy
5:55 PM 55.4 °F - 33.8 °F 44% 29.81 in 10.0 mi SE 15.0 mph - N/A   Clear
6:15 PM 53.6 °F - 33.8 °F 47% 29.81 in 10.0 mi SE 12.7 mph - N/A   Clear
6:35 PM 53.6 °F - 33.8 °F 47% 29.82 in 10.0 mi SE 9.2 mph - N/A   Clear
6:55 PM 51.8 °F - 33.8 °F 50% 29.82 in 10.0 mi SSE 4.6 mph - N/A   Partly Cloudy
7:15 PM 48.2 °F - 33.8 °F 58% 29.84 in 10.0 mi Calm Calm - N/A   Partly Cloudy
7:35 PM 46.4 °F 43.5 °F 33.8 °F 62% 29.84 in 10.0 mi East 5.8 mph - N/A   Clear
7:55 PM 44.6 °F 40.7 °F 32.0 °F 61% 29.84 in 10.0 mi ESE 6.9 mph - N/A   Clear
8:15 PM 42.8 °F 38.0 °F 32.0 °F 66% 29.83 in 10.0 mi SSE 8.1 mph - N/A   Clear
8:35 PM 42.8 °F 39.3 °F 30.2 °F 61% 29.83 in 10.0 mi South 5.8 mph - N/A   Clear
8:55 PM 42.8 °F 38.0 °F 32.0 °F 66% 29.83 in 10.0 mi SSW 8.1 mph - N/A   Clear
9:15 PM 42.8 °F 39.3 °F 32.0 °F 66% 29.82 in 10.0 mi SSW 5.8 mph - N/A   Clear
9:35 PM 39.2 °F 35.9 °F 30.2 °F 70% 29.82 in 10.0 mi South 4.6 mph - N/A   Clear
9:55 PM 41.0 °F - 32.0 °F 70% 29.83 in 10.0 mi Calm Calm - N/A   Clear
10:15 PM 39.2 °F - 30.2 °F 70% 29.83 in 10.0 mi Calm Calm - N/A   Clear
10:35 PM 35.6 °F 32.8 °F 28.4 °F 75% 29.82 in 10.0 mi East 3.5 mph - N/A   Clear
10:55 PM 37.4 °F 32.8 °F 30.2 °F 75% 29.82 in 10.0 mi ESE 5.8 mph - N/A   Clear
11:15 PM 37.4 °F 34.9 °F 30.2 °F 75% 29.81 in 10.0 mi ESE 3.5 mph - N/A   Clear
11:35 PM 33.8 °F 27.0 °F 26.6 °F 75% 29.82 in 10.0 mi North 8.1 mph - N/A   Clear
11:55 PM 33.8 °F 26.4 °F 28.4 °F 81% 29.81 in 10.0 mi NNE 9.2 mph - N/A   Clear